Mount Pleasant, SC

6:44 PM EDT on March 30, 2017 (GMT -0400)
Mount Pleasant

Weather History for KLRO - August, 2013

Change the Weather History Date:

Thursday, August 29, 2013

  Actual Average (KCHS) Record (KCHS)
Temperature  
Mean Temperature 84 °F -  
Max Temperature 93 °F 87 °F 97 °F (1990)
Min Temperature 75 °F 71 °F 57 °F (1986)
Cooling Degree Days 19    
Growing Degree Days 34 (Base 50)    
Moisture  
Dew Point 74 °F    
Average Humidity 78    
Maximum Humidity 100    
Minimum Humidity 49    
Precipitation  
Precipitation 0.03 in - - ()
Sea Level Pressure  
Sea Level Pressure 29.93 in    
Wind  
Wind Speed 6 mph (WSW)    
Max Wind Speed 10 mph    
Max Gust Speed -    
Visibility 9 miles    
Events Rain , Thunderstorm    
Averages and records for this station are not official NWS values.
T = Trace of Precipitation, MM = Missing Value Source: NWS Daily Summary

Daily Weather History Graph

Daily Weather History Graph

Search for Another Location

Airport or City:

Trip Planner

Search our weather history database for the weather conditions in past years. The results will help you decide how hot, cold, wet, or windy it might be!

Date:

Astronomy

Aug. 29, 2013 Rise Set
Actual Time 6:51 AM EDT 7:47 PM EDT
Civil Twilight 6:26 AM EDT 8:12 PM EDT
Nautical Twilight 5:56 AM EDT 8:42 PM EDT
Astronomical Twilight 5:25 AM EDT 9:13 PM EDT
Moon 12:51 AM EDT (8/29) 3:05 PM EDT (8/29)
Length of Visible Light 13h 46m
Length of Day
12h 55m
Last Quarter, 38% of the Moon is Illuminated
Aug 29
Last Quarter
Sep 5
New
Sep 12
First Quarter
Sep 19
Full
Sep 26
Last Quarter

Hourly Weather History & Observations

Time (EDT) Temp. Heat Index Dew Point Humidity Pressure Visibility Wind Dir Wind Speed Gust Speed Precip Events Conditions
12:15 AM 78.8 °F - 73.4 °F 83% 29.98 in 10.0 mi SW 5.8 mph - N/A   Clear
12:35 AM 78.8 °F - 73.4 °F 83% 29.98 in 10.0 mi SW 3.5 mph - N/A   Clear
12:55 AM 78.8 °F - 73.4 °F 83% 29.97 in 10.0 mi SW 5.8 mph - N/A   Clear
1:15 AM 77.0 °F - 73.4 °F 89% 29.97 in 10.0 mi SW 3.5 mph - N/A   Clear
1:35 AM 77.0 °F - 73.4 °F 89% 29.97 in 10.0 mi SW 5.8 mph - N/A   Clear
1:55 AM 77.0 °F - 73.4 °F 89% 29.97 in 10.0 mi SW 4.6 mph - N/A   Clear
2:15 AM 77.0 °F - 73.4 °F 89% 29.96 in 10.0 mi SW 4.6 mph - N/A   Clear
2:35 AM 77.0 °F - 73.4 °F 89% 29.96 in 10.0 mi SW 6.9 mph - N/A   Clear
2:55 AM 77.0 °F - 73.4 °F 89% 29.96 in 10.0 mi WSW 6.9 mph - N/A   Clear
3:15 AM 77.0 °F - 73.4 °F 89% 29.95 in 10.0 mi SW 4.6 mph - N/A   Clear
3:35 AM 77.0 °F - 73.4 °F 89% 29.95 in 10.0 mi WSW 8.1 mph - N/A   Clear
3:55 AM 77.0 °F - 73.4 °F 89% 29.96 in 10.0 mi WSW 6.9 mph - N/A   Clear
4:15 AM 77.0 °F - 73.4 °F 89% 29.95 in 10.0 mi WSW 8.1 mph - N/A   Clear
4:35 AM 77.0 °F - 73.4 °F 89% 29.95 in 10.0 mi WSW 6.9 mph - N/A   Clear
4:55 AM 77.0 °F - 73.4 °F 89% 29.95 in 10.0 mi WSW 8.1 mph - N/A   Clear
5:15 AM 77.0 °F - 73.4 °F 89% 29.95 in 10.0 mi WSW 8.1 mph - N/A   Clear
5:35 AM 77.0 °F - 73.4 °F 89% 29.95 in 10.0 mi WSW 6.9 mph - N/A   Clear
5:55 AM 75.2 °F - 73.4 °F 94% 29.95 in 10.0 mi WSW 5.8 mph - N/A   Clear
6:15 AM 75.2 °F - 73.4 °F 94% 29.96 in 10.0 mi WSW 6.9 mph - N/A   Clear
6:35 AM 75.2 °F - 73.4 °F 94% 29.95 in 10.0 mi SW 5.8 mph - N/A   Clear
6:55 AM 75.2 °F - 73.4 °F 94% 29.96 in 10.0 mi WSW 5.8 mph - N/A   Clear
7:15 AM 75.2 °F - 73.4 °F 94% 29.96 in 10.0 mi WSW 5.8 mph - N/A   Clear
7:35 AM 75.2 °F - 73.4 °F 94% 29.96 in 10.0 mi WSW 6.9 mph - N/A   Clear
7:55 AM 75.2 °F - 73.4 °F 94% 29.97 in 10.0 mi WSW 6.9 mph - N/A   Clear
8:15 AM 77.0 °F - 71.6 °F 83% 29.96 in 10.0 mi WSW 6.9 mph - N/A   Clear
8:35 AM 78.8 °F - 71.6 °F 78% 29.96 in 10.0 mi SW 6.9 mph - N/A   Clear
8:55 AM 80.6 °F 84.6 °F 71.6 °F 74% 29.96 in 10.0 mi WSW 5.8 mph - N/A   Clear
9:15 AM 80.6 °F 84.6 °F 71.6 °F 74% 29.96 in 10.0 mi West 9.2 mph - N/A   Clear
9:35 AM 82.4 °F 87.2 °F 71.6 °F 70% 29.96 in 10.0 mi WSW 10.4 mph - N/A   Clear
9:55 AM 84.2 °F 89.6 °F 71.6 °F 66% 29.95 in 10.0 mi WSW 8.1 mph - N/A   Clear
10:15 AM 84.2 °F 89.6 °F 71.6 °F 66% 29.95 in 10.0 mi West 9.2 mph - N/A   Clear
10:35 AM 84.2 °F 89.6 °F 71.6 °F 66% 29.95 in 10.0 mi WSW 10.4 mph - N/A   Clear
10:55 AM 86.0 °F 91.8 °F 71.6 °F 62% 29.95 in 10.0 mi WSW 8.1 mph - N/A   Clear
11:15 AM 87.8 °F 93.8 °F 71.6 °F 58% 29.95 in 10.0 mi West 6.9 mph - N/A   Clear
11:35 AM 87.8 °F 93.8 °F 71.6 °F 58% 29.95 in 10.0 mi West 6.9 mph - N/A   Clear
11:55 AM 89.6 °F 96.2 °F 71.6 °F 55% 29.94 in 10.0 mi West 6.9 mph - N/A   Clear
12:15 PM 89.6 °F 96.2 °F 71.6 °F 55% 29.93 in 9.0 mi West 6.9 mph - N/A   Clear
12:35 PM 89.6 °F 98.2 °F 73.4 °F 59% 29.93 in 9.0 mi WSW 8.1 mph - N/A   Clear
1:15 PM 91.4 °F 98.4 °F 71.6 °F 52% 29.92 in 9.0 mi WSW 5.8 mph - N/A   Clear
1:55 PM 93.2 °F 100.5 °F 71.6 °F 49% 29.91 in 9.0 mi WNW 6.9 mph - N/A   Clear
2:15 PM 91.4 °F 98.4 °F 71.6 °F 52% 29.90 in 9.0 mi SW 4.6 mph - N/A   Clear
2:35 PM 91.4 °F 98.4 °F 71.6 °F 52% 29.90 in 9.0 mi NW 3.5 mph - N/A   Clear
2:55 PM 93.2 °F 102.4 °F 73.4 °F 52% 29.89 in 9.0 mi West 4.6 mph - N/A   Clear
3:15 PM 93.2 °F 102.4 °F 73.4 °F 52% 29.88 in 9.0 mi Calm Calm - N/A   Clear
3:35 PM 93.2 °F 102.4 °F 73.4 °F 52% 29.88 in 9.0 mi West 4.6 mph - N/A   Partly Cloudy
3:55 PM 93.2 °F 105.0 °F 75.2 °F 56% 29.88 in 9.0 mi South 9.2 mph - N/A   Scattered Clouds
4:15 PM 91.4 °F 107.2 °F 78.8 °F 66% 29.88 in 7.0 mi SSE 8.1 mph - N/A   Scattered Clouds
4:35 PM 89.6 °F 104.7 °F 78.8 °F 70% 29.88 in 7.0 mi South 8.1 mph - N/A   Scattered Clouds
4:55 PM 87.8 °F 102.5 °F 78.8 °F 75% 29.88 in 5.0 mi South 9.2 mph - N/A   Haze
5:15 PM 89.6 °F 104.7 °F 78.8 °F 70% 29.88 in 7.0 mi SSW 6.9 mph - N/A   Clear
5:35 PM 89.6 °F 104.7 °F 78.8 °F 70% 29.87 in 8.0 mi SSW 8.1 mph - N/A   Clear
5:55 PM 89.6 °F 104.7 °F 78.8 °F 70% 29.87 in 8.0 mi SSW 8.1 mph - N/A   Clear
6:15 PM 89.6 °F 102.2 °F 77.0 °F 66% 29.87 in 8.0 mi SSW 5.8 mph - N/A   Clear
6:35 PM 87.8 °F 102.5 °F 78.8 °F 75% 29.87 in 8.0 mi SSW 8.1 mph - N/A   Clear
6:55 PM 87.8 °F 102.5 °F 78.8 °F 75% 29.87 in 7.0 mi SSW 6.9 mph - N/A Thunderstorm Clear
7:15 PM 84.2 °F 94.1 °F 77.0 °F 79% 29.87 in 7.0 mi SSW 5.8 mph - N/A Thunderstorm Clear
7:35 PM 84.2 °F 92.3 °F 75.2 °F 74% 29.88 in 8.0 mi Calm Calm - N/A Thunderstorm Clear
7:55 PM 82.4 °F 89.5 °F 75.2 °F 79% 29.88 in 8.0 mi WSW 3.5 mph - N/A Thunderstorm Clear
8:15 PM 82.4 °F 89.5 °F 75.2 °F 79% 29.89 in 10.0 mi SW 4.6 mph - N/A   Clear
8:35 PM 80.6 °F 86.2 °F 75.2 °F 84% 29.90 in 10.0 mi Calm Calm - N/A Thunderstorm Clear
8:55 PM 80.6 °F 86.2 °F 75.2 °F 84% 29.91 in 10.0 mi Calm Calm - N/A Thunderstorm Clear
9:15 PM 78.8 °F - 75.2 °F 89% 29.91 in 8.0 mi Calm Calm - N/A Thunderstorm Clear
9:35 PM 82.4 °F 89.5 °F 75.2 °F 79% 29.92 in 9.0 mi NNE 3.5 mph - N/A Thunderstorm Partly Cloudy
9:55 PM 80.6 °F 86.2 °F 75.2 °F 84% 29.93 in 3.0 mi NNE 3.5 mph - 0.03 in Rain , Thunderstorm Heavy Rain
10:15 PM 78.8 °F - 77.0 °F 94% 29.92 in 5.0 mi NNW 3.5 mph - N/A Thunderstorm Scattered Clouds
10:35 PM 77.0 °F - 77.0 °F 100% 29.93 in 3.0 mi North 3.5 mph - N/A   Partly Cloudy
10:55 PM 77.0 °F - 75.2 °F 94% 29.93 in 3.0 mi Calm Calm - N/A Thunderstorm Clear
11:15 PM 75.2 °F - 75.2 °F 100% 29.94 in 1.5 mi Calm Calm - N/A Thunderstorm Clear
11:35 PM 75.2 °F - 75.2 °F 100% 29.93 in 1.2 mi NNE 3.5 mph - N/A   Clear
11:55 PM 77.0 °F - 75.2 °F 94% 29.94 in 2.5 mi Calm Calm - N/A   Clear